Regional Weather Roundup
Issued by NWS

Home | Current Version | Previous Version | Graphics & Text | Print | Product List | Glossary On
Versions: 1 2 3 4 5 6 7 8 9 10 11 12 13 14 15 16 17 18 19 20 21 22 23 24 25 26 27 28 29 30 31 32 33 34 35 36 37 38 39 40 41 42 43 44 45 46 47 48 49 50
000
ASUS45 KSLC 260910
RWRUT

UTAH REGIONAL WEATHER ROUNDUP
NATIONAL WEATHER SERVICE SALT LAKE CITY UT
300 AM MDT SUN MAR 26 2017

UTZ001>011-023>025-261000-

NORTHERN UTAH

CITY           SKY/WX    TMP DP  RH WIND       PRES   REMARKS
BRIGHAM CITY     N/A     38  35  89 NW3       30.04S
HILL AFB       CLEAR     37  33  87 SE5       30.02S WCI  33
LOGAN          CLEAR     35  32  88 CALM      30.02S
OGDEN          CLEAR     34  33  96 S5        30.02S WCI  30
SALT LAKE CITY PTCLDY    37  36  96 SE5       30.02S WCI  33
WENDOVER       CLEAR     38  30  73 N3        30.03R
HEBER CITY     CLEAR     30  27  86 CALM      30.01R

$$

UTZ011>015-024>027-261000-

CENTRAL/NORTHEAST UTAH

CITY           SKY/WX    TMP DP  RH WIND       PRES   REMARKS
PROVO AIRPORT  PTCLDY    40  37  89 NW5       30.04S
MOAB/CANYONLAN CLOUDY    45  34  65 W14       29.88S
DELTA          CLEAR     32  32 100 S8        30.05S WCI  25
PRICE          CLEAR     38  27  64 W8        29.93S WCI  32
ROOSEVELT      MOCLDY    41  36  81 W3        29.94S
VERNAL         CLOUDY    42  32  67 N7        29.91S

$$

UTZ013>016-019>022-027-261000-

SOUTHERN UTAH

CITY           SKY/WX    TMP DP  RH WIND       PRES   REMARKS
BRYCE CANYON   CLEAR     28  23  81 NW9       30.02R WCI  19
CEDAR CITY     PTCLDY    33  31  92 CALM      30.02F
MILFORD        CLEAR     32  30  92 CALM      30.04S
ST GEORGE      SUNNY     42  36  79 E6        30.01F
HANKSVILLE     PTCLDY    45  32  61 W8        29.95S
BLANDING       PTCLDY    38  36  90 CALM      30.00F

$$

REGIONAL REPORTS     COLORADO/ARIZONA

CITY           SKY/WX    TMP DP  RH WIND       PRES   REMARKS
CRAIG, CO      CLOUDY    40  34  79 W8        29.92R WCI  34
GRAND JUNCTION CLOUDY    48  36  63 NW7       29.87S
RIFLE, CO      LGT RAIN  42  35  76 CALM      29.89S
MONTROSE, CO   LGT RAIN  40  38  93 SE10      29.92S WCI  33
CORTEZ, CO     CLOUDY    39  38  96 CALM      29.94S
COLORADO CITY    N/A     34  32  93 CALM      30.05S
PAGE, AZ       CLEAR     49  36  61 W6        29.95S
GRAND CANYON   CLEAR     28  27  96 W3        30.03F
KINGMAN, AZ    CLEAR     44  28  53 SE10      29.99F
FLAGSTAFF, AZ  CLEAR     29  25  85 S5        30.02S WCI  24

$$

REGIONAL REPORTS    NEVADA/IDAHO/WYOMING

CITY           SKY/WX    TMP DP  RH WIND       PRES   REMARKS
LAS VEGAS, NV  PTCLDY    59  36  42 CALM      29.97S
ELY, NY        PTCLDY    27  24  89 SE9       30.06R WCI  18
ELKO, NV       MOCLDY    32  27  81 NE3       30.01F
POCATELLO, ID  CLEAR     38  27  64 SW13      30.00F WCI  30
BURLEY, ID     CLEAR     33  27  78 SW9       30.00S WCI  25
FORT BRIDGER,  PTSUNNY   31  31 100 W6        30.03S WCI  25
EVANSTON, WY   PTCLDY    26  23  88 SW7       30.01S WCI  18
ROCK SPRINGS,  CLOUDY    35  31  85 W7        29.96S WCI  29
KEMMERER, WY     N/A     28  25  86 NW9       29.99S WCI  20

$$



USA.gov is the U.S. government's official web portal to all federal, state and local government web resources and services.